• MPC Preparation (Info)

  • MPEC 2010-V34 : 2010 VZ

    The following Minor Planet Electronic Circular may be linked-to from your own Web pages, but must not otherwise be redistributed electronically.

    A form allowing access to any MPEC is at the bottom of this page.


    Read MPEC 2010-V33 Read MPEC 2010-V35


    M.P.E.C. 2010-V34                                Issued 2010 Nov. 4, 04:07 UT
    
         The Minor Planet Electronic Circulars contain information on unusual
             minor planets and routine data on comets.  They are published
       on behalf of Commission 20 of the International Astronomical Union by the
              Minor Planet Center, Smithsonian Astrophysical Observatory,
                              Cambridge, MA 02138, U.S.A.
    
                 Prepared using the Tamkin Foundation Computer Network
    
                                  MPC@CFA.HARVARD.EDU
           URL https://www.minorplanetcenter.org/iau/mpc.html  ISSN 1523-6714
    
                                        2010 VZ
    
    Observations:
         K10V00Z* C2010 11 02.07441 20 17 53.77 -23 15 38.8          20.1 V EV034G96
         K10V00Z  C2010 11 02.08198 20 17 55.32 -23 15 45.0          19.9 V EV034G96
         K10V00Z  C2010 11 02.08958 20 17 56.79 -23 15 50.2          20.3 V EV034G96
         K10V00Z  C2010 11 02.09719 20 17 58.34 -23 15 55.8          20.0 V EV034G96
         K10V00Z  C2010 11 02.14045 20 18 07.12 -23 16 27.2          20.4 V EV034G96
         K10V00Z  C2010 11 02.14111 20 18 07.27 -23 16 27.8          20.3 V EV034G96
         K10V00Z  C2010 11 02.14178 20 18 07.38 -23 16 28.3          20.6 V EV034G96
         K10V00Z  C2010 11 02.14245 20 18 07.56 -23 16 28.7          20.3 V EV034G96
         K10V00Z  C2010 11 03.05562 20 21 21.34 -23 27 46.9          19.5 R EV034H01
         K10V00Z  C2010 11 03.06161 20 21 22.58 -23 27 51.3          19.9 R EV034H01
         K10V00Z  C2010 11 03.06995 20 21 24.30 -23 27 57.4          19.5 R EV034H01
         K10V00Z tC2010 11 03.07713 20 21 25.89 -23 28 02.1          20.4 V EV034291
         K10V00Z tC2010 11 03.08102 20 21 26.67 -23 28 04.9                 EV034291
         K10V00Z  C2010 11 03.08302 20 21 27.02 -23 28 07.0          19.7 R EV034H01
         K10V00Z tC2010 11 03.08492 20 21 27.50 -23 28 07.4                 EV034291
         K10V00Z KC2010 11 04.00004320 24 45.59 -23 39 19.0                 EV034H21
         K10V00Z KC2010 11 04.01050520 24 47.80 -23 39 26.6          20.4 V EV034H21
         K10V00Z KC2010 11 04.02106420 24 50.06 -23 39 33.5                 EV034H21
         K10V00Z  C2010 11 04.07378 20 25 01.56 -23 40 11.2          19.7 R EV034H01
         K10V00Z  C2010 11 04.08530 20 25 04.01 -23 40 19.4          19.6 R EV034H01
         K10V00Z  C2010 11 04.09126 20 25 05.28 -23 40 23.6          19.5 R EV034H01
         K10V00Z  C2010 11 04.09430 20 25 05.92 -23 40 25.8          19.8 R EV034H01
    
    Observer details:
    291 LPL/Spacewatch II.  Observer T. H. Bressi.  1.8-m f/2.7 reflector + CCD.
    G96 Mt. Lemmon Survey.  Observer A. Boattini.  Measurers J. D. Ahern,
        E. C. Beshore, A. Boattini, G. J. Garradd, A. R. Gibbs, A. D. Grauer,
        R. E. Hill, R. A. Kowalski, S. M. Larson, R. H. McNaught.  1.5-m reflector
        + CCD.
    H01 Magdalena Ridge Observatory, Socorro.  Observer W. H. Ryan.  2.4-m f/8.9
        reflector + CCD.
    H21 Astronomical Research Observatory, Westfield.  Observer R. Holmes.
        Measurers R. Holmes, H. Devore.  0.81-m f/4.0 astrograph + CCD.
    
    Orbital elements:
    2010 VZ                                             PHA, Earth MOID = 0.0380 AU
    Epoch 2010 July 23.0 TT = JDT 2455400.5                 MPC
    M 322.40341              (2000.0)            P               Q
    n   0.30796121     Peri.  215.12788     +0.77751733     -0.62879500
    a   2.1717277      Node   183.87092     +0.60352740     +0.75020203
    e   0.5420243      Incl.    7.78621     +0.17669599     +0.20448413
    P   3.20           H   19.4           G   0.15           U   8
    Residuals in seconds of arc
    101102 G96  0.3+  0.4+    101103 H01  0.1+  0.1-    101104 H21  0.1+  0.2-
    101102 G96  0.7+  0.2-    101103 H01  0.2+  0.1-    101104 H21  0.4+  0.4+
    101102 G96  0.2-  0.1+    101103 H01  0.1+  0.2-    101104 H01  0.2+  0.0
    101102 G96  0.0   0.1+    101103 291  0.4+  0.1+    101104 H01  0.4+  0.1+
    101102 G96  0.3+  0.1+    101103 291  0.1+  0.1+    101104 H01  0.5+  0.1+
    101102 G96  0.5+  0.1-    101103 H01  0.4+  0.3-    101104 H01  0.4+  0.0
    101102 G96  0.1+  0.1-    101103 291  0.5+  0.4+
    101102 G96  0.8+  0.0     101104 H21  0.1+  0.1-
    
    Ephemeris:
    2010 VZ                  a,e,i = 2.17, 0.54, 8                   q = 0.9946
    Date    TT    R. A. (2000) Decl.     Delta      r     Elong.  Phase     V
    2010 10 31    20 10.84   -22 49.3    0.440    1.033    82.6    72.4    20.2
    2010 11 10    20 48.18   -24 47.9    0.406    1.006    80.5    76.1    20.1
    2010 11 20    21 34.73   -26 17.3    0.372    0.995    80.2    78.2    20.0
    2010 11 30    22 31.65   -26 46.3    0.341    1.000    82.3    77.9    19.8
    2010 12 10    23 38.30   -25 26.7    0.321    1.020    87.1    74.6    19.6
    2010 12 20    00 49.79   -21 41.4    0.317    1.055    94.1    68.5    19.4
    2010 12 30    01 58.03   -15 50.3    0.333    1.102   101.9    60.9    19.4
    2011 01 09    02 57.21   -09 10.0    0.373    1.158   108.7    53.6    19.5
    2011 01 19    03 46.24   -02 56.0    0.434    1.221   113.1    47.8    19.8
    2011 01 29    04 26.74   +02 16.4    0.514    1.290   115.1    43.7    20.2
    2011 02 08    05 01.05   +06 23.0    0.612    1.362   114.9    41.1    20.6
    2011 02 18    05 31.09   +09 31.1    0.724    1.436   113.1    39.3    21.0
    2011 02 28    05 58.13   +11 51.0    0.849    1.511   110.2    38.0    21.5
    2011 03 10    06 23.10   +13 31.6    0.987    1.586   106.5    36.9    21.9
    
    Sonia Keys                   (C) Copyright 2010 MPC           M.P.E.C. 2010-V34
    

    Read MPEC 2010-V33 Read MPEC 2010-V35


    MPEC number:

    Enter an MPEC number in one of the following forms:

    • 1997-B01 (the full form)
    • J97B01 (the packed version of the full form)
    • B01 (the abbreviated form)